timestamp,wind_dir_avg,wind_spd_max_dir,wind_spd_avg,wind_spd_gust,battery_voltage,lat,long
2017-10-11 00:10:00+00:00,46.0,66.0,1.59,2.74,12.6,47.59359,-54.27349
2017-10-11 00:20:00+00:00,284.0,275.0,2.01,4.63,12.7,47.59359,-54.27349
2017-10-11 00:30:00+00:00,281.0,279.0,6.5,6.93,12.7,47.59359,-54.27349
2017-10-11 01:10:00+00:00,263.0,247.0,3.37,5.3,12.6,47.59359,-54.27349
2017-10-11 01:20:00+00:00,225.0,226.0,6.67,7.37,12.7,47.59359,-54.27349
2017-10-11 01:30:00+00:00,229.0,231.0,7.7,9.23,12.7,47.59359,-54.27349
2017-10-11 01:40:00+00:00,233.0,234.0,6.94,8.39,12.7,47.59359,-54.27349
2017-10-11 01:50:00+00:00,232.0,234.0,6.2,7.04,12.7,47.59359,-54.27349
2017-10-11 02:00:00+00:00,231.0,232.0,6.0,7.12,12.6,47.59359,-54.27349
2017-10-11 02:10:00+00:00,232.0,233.0,6.47,7.13,12.6,47.59359,-54.27349
2017-10-11 02:20:00+00:00,226.0,223.0,7.25,8.28,12.6,47.59359,-54.27349
2017-10-11 02:30:00+00:00,226.0,228.0,6.11,6.86,12.6,47.59359,-54.27349
2017-10-11 02:40:00+00:00,224.0,221.0,5.79,6.78,12.7,47.59359,-54.27349
2017-10-11 02:50:00+00:00,228.0,228.0,5.92,6.74,12.7,47.59359,-54.27349
2017-10-11 03:00:00+00:00,232.0,236.0,5.44,6.22,12.6,47.59359,-54.27349
2017-10-11 03:10:00+00:00,246.0,243.0,5.63,6.26,12.6,47.59359,-54.27349
2017-10-11 03:20:00+00:00,243.0,245.0,5.24,6.12,12.6,47.59359,-54.27349
2017-10-11 03:30:00+00:00,247.0,246.0,5.43,6.2,12.6,47.59359,-54.27349
2017-10-11 03:40:00+00:00,261.0,261.0,6.33,6.8,12.6,47.59359,-54.27349
2017-10-11 03:50:00+00:00,244.0,242.0,5.79,6.35,12.6,47.59359,-54.27349
2017-10-11 04:00:00+00:00,246.0,250.0,4.42,5.54,12.6,47.59359,-54.27349
2017-10-11 04:10:00+00:00,237.0,238.0,3.93,4.81,12.6,47.59359,-54.27349
2017-10-11 04:20:00+00:00,230.0,231.0,4.34,4.74,12.6,47.59359,-54.27349
2017-10-11 04:30:00+00:00,243.0,247.0,4.43,4.62,12.6,47.59359,-54.27349
2017-10-11 04:40:00+00:00,247.0,247.0,4.55,5.16,12.6,47.59359,-54.27349
2017-10-11 04:50:00+00:00,249.0,257.0,4.73,5.65,12.6,47.59359,-54.27349
2017-10-11 05:00:00+00:00,249.0,267.0,3.43,4.36,12.6,47.59359,-54.27349
2017-10-11 05:10:00+00:00,267.0,289.0,3.55,5.85,12.6,47.59359,-54.27349
2017-10-11 05:20:00+00:00,309.0,315.0,5.46,7.04,12.6,47.59359,-54.27349
2017-10-11 05:30:00+00:00,317.0,317.0,8.86,10.62,12.6,47.59359,-54.27349
2017-10-11 05:40:00+00:00,319.0,308.0,9.98,13.28,12.6,47.59359,-54.27349
2017-10-11 05:50:00+00:00,318.0,320.0,9.52,11.19,12.6,47.59359,-54.27349
2017-10-11 06:00:00+00:00,323.0,329.0,9.84,12.12,12.6,47.59359,-54.27349
2017-10-11 06:10:00+00:00,320.0,320.0,11.22,13.47,12.6,47.59359,-54.27349
2017-10-11 06:20:00+00:00,324.0,331.0,10.58,13.99,12.6,47.59359,-54.27349
2017-10-11 06:30:00+00:00,323.0,325.0,12.34,14.59,12.6,47.59359,-54.27349
2017-10-11 06:40:00+00:00,325.0,321.0,9.23,10.42,12.6,47.59359,-54.27349
2017-10-11 06:50:00+00:00,334.0,343.0,11.71,13.85,12.6,47.59359,-54.27349
2017-10-11 07:00:00+00:00,325.0,328.0,11.24,12.99,12.6,47.59359,-54.27349
2017-10-11 07:10:00+00:00,321.0,327.0,9.17,10.93,12.5,47.59359,-54.27349
2017-10-11 07:20:00+00:00,324.0,325.0,7.02,7.74,12.6,47.59359,-54.27349
2017-10-11 07:30:00+00:00,322.0,313.0,6.06,6.78,12.6,47.59359,-54.27349
2017-10-11 07:40:00+00:00,317.0,315.0,9.28,10.75,12.6,47.59359,-54.27349
2017-10-11 07:50:00+00:00,320.0,332.0,10.93,12.12,12.6,47.59359,-54.27349
2017-10-11 08:00:00+00:00,327.0,332.0,8.96,10.75,12.6,47.59359,-54.27349
2017-10-11 08:10:00+00:00,322.0,318.0,9.66,12.01,12.5,47.59359,-54.27349
2017-10-11 08:20:00+00:00,325.0,322.0,10.63,11.92,12.6,47.59359,-54.27349
2017-10-11 08:30:00+00:00,321.0,325.0,9.51,10.89,12.6,47.59359,-54.27349
2017-10-11 08:40:00+00:00,325.0,327.0,10.5,12.85,12.6,47.59359,-54.27349
2017-10-11 08:50:00+00:00,336.0,331.0,14.9,17.25,12.6,47.59359,-54.27349
2017-10-11 09:00:00+00:00,343.0,342.0,11.65,14.37,12.6,47.59359,-54.27349
2017-10-11 09:10:00+00:00,353.0,0.0,11.42,13.27,12.5,47.59359,-54.27349
2017-10-11 09:20:00+00:00,350.0,347.0,11.48,13.41,12.6,47.59359,-54.27349
2017-10-11 09:30:00+00:00,351.0,354.0,10.67,12.94,12.6,47.59359,-54.27349
2017-10-11 09:40:00+00:00,352.0,351.0,12.11,13.83,12.6,47.59359,-54.27349
2017-10-11 09:50:00+00:00,349.0,350.0,11.21,13.16,12.6,47.59359,-54.27349
2017-10-11 10:00:00+00:00,353.0,356.0,9.05,11.0,12.6,47.59359,-54.27349
2017-10-11 10:10:00+00:00,343.0,345.0,7.52,9.03,12.9,47.59359,-54.27349
2017-10-11 10:20:00+00:00,336.0,338.0,7.89,9.01,13.6,47.59359,-54.27349
2017-10-11 10:30:00+00:00,334.0,346.0,8.01,9.2,13.7,47.59359,-54.27349
2017-10-11 10:40:00+00:00,337.0,334.0,8.81,10.37,13.8,47.59359,-54.27349
2017-10-11 10:50:00+00:00,340.0,344.0,9.35,10.82,13.7,47.59359,-54.27349
2017-10-11 11:00:00+00:00,326.0,325.0,7.73,8.62,14.2,47.59359,-54.27349
2017-10-11 11:10:00+00:00,316.0,320.0,6.33,7.24,13.8,47.59359,-54.27349
2017-10-11 11:20:00+00:00,323.0,320.0,8.29,10.12,14.3,47.59359,-54.27349
2017-10-11 11:30:00+00:00,327.0,325.0,9.06,10.58,13.8,47.59359,-54.27349
2017-10-11 11:40:00+00:00,315.0,318.0,7.72,9.42,13.9,47.59359,-54.27349
2017-10-11 11:50:00+00:00,320.0,313.0,6.15,8.22,13.8,47.59359,-54.27349
2017-10-11 12:00:00+00:00,316.0,333.0,6.37,9.1,13.8,47.59359,-54.27349
2017-10-11 12:10:00+00:00,307.0,321.0,6.3,9.39,13.7,47.59359,-54.27349
2017-10-11 12:20:00+00:00,321.0,322.0,7.86,9.55,14.1,47.59359,-54.27349
2017-10-11 12:30:00+00:00,327.0,320.0,8.87,11.29,14.1,47.59359,-54.27349
2017-10-11 12:40:00+00:00,317.0,316.0,7.67,9.37,13.9,47.59359,-54.27349
2017-10-11 12:50:00+00:00,317.0,311.0,8.62,10.31,13.7,47.59359,-54.27349
2017-10-11 13:00:00+00:00,333.0,317.0,7.36,9.67,14.0,47.59359,-54.27349
2017-10-11 13:10:00+00:00,330.0,339.0,9.13,11.18,14.0,47.59359,-54.27349
2017-10-11 13:20:00+00:00,318.0,318.0,8.69,10.0,13.7,47.59359,-54.27349
2017-10-11 13:30:00+00:00,326.0,330.0,7.16,8.17,14.0,47.59359,-54.27349
2017-10-11 13:40:00+00:00,314.0,314.0,7.21,9.19,13.7,47.59359,-54.27349
2017-10-11 13:50:00+00:00,319.0,322.0,9.93,12.64,14.0,47.59359,-54.27349
2017-10-11 14:00:00+00:00,309.0,305.0,9.29,11.39,13.7,47.59359,-54.27349
2017-10-11 14:10:00+00:00,312.0,312.0,9.44,11.23,13.7,47.59359,-54.27349
2017-10-11 14:20:00+00:00,307.0,306.0,11.7,14.19,14.0,47.59359,-54.27349
2017-10-11 14:30:00+00:00,331.0,335.0,9.97,11.93,14.0,47.59359,-54.27349
2017-10-11 14:40:00+00:00,322.0,325.0,7.91,9.76,13.7,47.59359,-54.27349
2017-10-11 14:50:00+00:00,312.0,309.0,8.5,11.83,13.7,47.59359,-54.27349
2017-10-11 15:00:00+00:00,334.0,342.0,6.92,8.48,14.0,47.59359,-54.27349
2017-10-11 15:10:00+00:00,314.0,309.0,8.96,11.01,13.7,47.59359,-54.27349
2017-10-11 15:20:00+00:00,315.0,313.0,10.6,12.3,13.8,47.59359,-54.27349
2017-10-11 15:30:00+00:00,310.0,316.0,8.06,9.08,13.7,47.59359,-54.27349
2017-10-11 15:40:00+00:00,312.0,319.0,7.78,9.36,14.0,47.59359,-54.27349
2017-10-11 15:50:00+00:00,308.0,308.0,10.09,11.37,13.9,47.59359,-54.27349
2017-10-11 16:00:00+00:00,309.0,310.0,8.62,10.66,13.9,47.59359,-54.27349
2017-10-11 16:10:00+00:00,313.0,322.0,8.28,10.0,14.0,47.59359,-54.27349
2017-10-11 16:20:00+00:00,318.0,318.0,8.17,9.48,14.0,47.59359,-54.27349
2017-10-11 16:30:00+00:00,315.0,309.0,7.82,10.07,13.7,47.59359,-54.27349
2017-10-11 16:40:00+00:00,316.0,314.0,6.62,8.09,14.0,47.59359,-54.27349
2017-10-11 16:50:00+00:00,295.0,291.0,6.63,7.87,13.7,47.59359,-54.27349
2017-10-11 17:00:00+00:00,332.0,307.0,5.79,7.88,13.7,47.59359,-54.27349
2017-10-11 17:10:00+00:00,307.0,301.0,6.84,8.28,13.7,47.59359,-54.27349
2017-10-11 17:20:00+00:00,299.0,301.0,9.04,10.84,13.9,47.59359,-54.27349
2017-10-11 17:30:00+00:00,329.0,324.0,8.06,9.68,13.9,47.59359,-54.27349
2017-10-11 17:40:00+00:00,313.0,313.0,9.74,11.76,13.9,47.59359,-54.27349
2017-10-11 17:50:00+00:00,312.0,310.0,10.2,12.19,13.8,47.59359,-54.27349
2017-10-11 18:00:00+00:00,306.0,305.0,10.66,13.44,13.8,47.59359,-54.27349
2017-10-11 18:10:00+00:00,307.0,305.0,10.22,11.96,13.7,47.59359,-54.27349
2017-10-11 18:20:00+00:00,304.0,305.0,9.31,11.29,13.7,47.59359,-54.27349
2017-10-11 18:30:00+00:00,308.0,305.0,7.99,8.68,13.7,47.59359,-54.27349
2017-10-11 18:40:00+00:00,309.0,307.0,8.07,8.99,13.7,47.59359,-54.27349
2017-10-11 18:50:00+00:00,312.0,313.0,8.52,10.29,13.8,47.59359,-54.27349
2017-10-11 19:00:00+00:00,316.0,316.0,9.3,11.07,13.7,47.59359,-54.27349
2017-10-11 19:10:00+00:00,320.0,320.0,6.55,7.31,13.8,47.59359,-54.27349
2017-10-11 19:20:00+00:00,329.0,332.0,5.98,7.59,13.8,47.59359,-54.27349
2017-10-11 19:30:00+00:00,316.0,307.0,6.46,9.23,13.8,47.59359,-54.27349
2017-10-11 19:40:00+00:00,317.0,316.0,6.74,7.88,13.8,47.59359,-54.27349
2017-10-11 19:50:00+00:00,314.0,306.0,7.87,9.93,13.7,47.59359,-54.27349
2017-10-11 20:00:00+00:00,316.0,312.0,6.23,7.23,13.6,47.59359,-54.27349
2017-10-11 20:10:00+00:00,324.0,335.0,5.74,6.22,13.4,47.59359,-54.27349
2017-10-11 20:20:00+00:00,325.0,330.0,6.8,7.97,13.4,47.59359,-54.27349
2017-10-11 20:30:00+00:00,319.0,321.0,7.84,10.0,13.4,47.59359,-54.27349
2017-10-11 20:40:00+00:00,307.0,315.0,8.51,10.59,13.3,47.59359,-54.27349
2017-10-11 20:50:00+00:00,321.0,316.0,7.38,9.3,13.3,47.59359,-54.27349
2017-10-11 21:00:00+00:00,319.0,312.0,7.62,8.5,13.1,47.59359,-54.27349
2017-10-11 21:10:00+00:00,322.0,320.0,7.53,8.26,13.0,47.59359,-54.27349
2017-10-11 21:20:00+00:00,314.0,311.0,8.96,10.58,13.0,47.59359,-54.27349
2017-10-11 21:30:00+00:00,345.0,345.0,6.33,7.24,12.9,47.59359,-54.27349
2017-10-11 21:40:00+00:00,342.0,343.0,10.27,11.87,12.9,47.59359,-54.27349
2017-10-11 21:50:00+00:00,345.0,351.0,8.8,10.54,12.9,47.59359,-54.27349
2017-10-11 22:00:00+00:00,348.0,352.0,9.38,10.92,12.8,47.59359,-54.27349
2017-10-11 22:10:00+00:00,353.0,350.0,9.1,10.28,12.6,47.59359,-54.27349
2017-10-11 22:20:00+00:00,337.0,331.0,9.9,12.22,12.7,47.59359,-54.27349
2017-10-11 22:30:00+00:00,329.0,338.0,9.95,12.6,12.7,47.59359,-54.27349
2017-10-11 22:40:00+00:00,333.0,339.0,8.84,10.57,12.8,47.59359,-54.27349
2017-10-11 22:50:00+00:00,336.0,341.0,6.46,7.91,12.8,47.59359,-54.27349
2017-10-11 23:00:00+00:00,334.0,334.0,4.43,5.53,12.7,47.59359,-54.27349
2017-10-11 23:10:00+00:00,336.0,338.0,5.83,7.46,12.6,47.59359,-54.27349
2017-10-11 23:20:00+00:00,345.0,338.0,6.44,7.55,12.7,47.59359,-54.27349
2017-10-11 23:30:00+00:00,348.0,350.0,6.42,7.21,12.7,47.59359,-54.27349
2017-10-11 23:40:00+00:00,351.0,355.0,5.76,6.32,12.7,47.59359,-54.27349
2017-10-11 23:50:00+00:00,342.0,338.0,5.35,6.22,12.7,47.59359,-54.27349
